Station PCBF1 - 8729210 - Panama City Beach, FL Image indicating link to RSS feed of recent meteorological observations for station PCBF1


Conditions at PCBF1 as of
(1:18 pm EDT)
1718 GMT on 05/20/2024:
     

Click on the graph icon in the table below to see a time series plot of the last five days of that observation.

5-day plot - Wind Direction Wind Direction (WDIR): E ( 90 deg true )
5-day plot - Wind Speed Wind Speed (WSPD): 7.0 kts
5-day plot - Wind Gust Wind Gust (GST): 9.9 kts
5-day plot - Atmospheric Pressure Atmospheric Pressure (PRES):29.95 in
5-day plot - Air Temperature Air Temperature (ATMP): 80.1 °F
5-day plot - Water Temperature Water Temperature (WTMP): 78.4 °F
5-day plot - Wind Speed at 10 Meters Wind Speed at 10 meters (WSPD10M): 7.8 kts
5-day plot - Wind Speed at 20 Meters Wind Speed at 20 meters (WSPD20M): 7.8 kts
5-day plot -  Wind Speed, Wind Gust and Atmospheric Pressure Combined plot of Wind Speed, Gust, and Air Pressure
NOS Water Level Observation Network Water Level
Previous observations
TIME
(EDT)
5-day plot - Wind Direction
WDIR
 
5-day plot - Wind Speed
WSPD
kts
5-day plot - Wind Gust
GST
kts
5-day plot - Wave Height
WVHT
ft
5-day plot - Dominant Wave Period
DPD
sec
5-day plot - Average Wave Period
APD
sec
5-day plot - Mean Wave Direction
MWD
 
5-day plot - Atmospheric Pressure
PRES
in
5-day plot - Pressure Tendency
PTDY
in
5-day plot - Air Temperature
ATMP
°F
5-day plot - Water Temperature
WTMP
°F
5-day plot - Dew Point
DEWP
°F
5-day plot - Salinity
SAL
psu
5-day plot - Visibility
VIS
nmi
5-day plot - Tide (above MLLW)
TIDE
ft
2024-05-20 01:12 pmENE 7.0 11.1----29.96- 79.5 78.4----
2024-05-20 01:06 pm NE 5.1 12.0----29.96- 79.9 78.4----
2024-05-20 01:00 pm E 6.0 11.1----29.96+0.00 79.3 78.4----
2024-05-20 12:54 pmENE 6.0 9.9----29.96- 79.3 78.4----
2024-05-20 12:48 pmENE 6.0 9.9----29.96- 79.2 78.4----
2024-05-20 12:42 pm NE 5.1 8.9----29.96- 78.8 78.4----
2024-05-20 12:36 pmENE 7.0 9.9----29.96- 78.4 78.3----
2024-05-20 12:30 pm E 7.0 9.9----29.96- 78.8 78.3----
2024-05-20 12:24 pm E 8.0 11.1----29.96- 78.3 78.3----
2024-05-20 12:18 pm NE 8.0 11.1----29.96- 77.9 78.3----
2024-05-20 12:12 pmENE 8.9 12.0----29.96- 77.9 78.3----
2024-05-20 12:06 pmENE 6.0 11.1----29.96- 77.7 78.3----
2024-05-20 12:00 pmENE 8.0 11.1----29.96+0.02 77.9 78.1----
2024-05-20 11:54 amNNE 6.0 11.1----29.96- 77.2 78.1----
2024-05-20 11:48 amENE 5.1 11.1----29.96- 77.4 78.1----
2024-05-20 11:42 amENE 8.0 11.1----29.96- 77.0 78.1----
2024-05-20 11:36 amENE 7.0 11.1----29.96- 77.0 78.1----
2024-05-20 11:30 amENE 9.9 12.0----29.96- 76.6 78.1----
2024-05-20 11:24 am NE 8.0 11.1----29.96- 76.8 78.1----
2024-05-20 11:18 am NE 6.0 12.0----29.96- 77.0 78.1----
2024-05-20 11:12 amENE 8.0 11.1----29.96- 76.5 78.1----
2024-05-20 11:06 am NE 7.0 11.1----29.96- 76.5 78.1----
2024-05-20 11:00 am NE 8.0 11.1----29.96+0.03 75.9 78.1----
2024-05-20 10:54 am NE 7.0 9.9----29.96- 75.9 78.1----
2024-05-20 10:48 amNNE 6.0 9.9----29.96- 76.3 78.1----
2024-05-20 10:42 amNNE 6.0 8.0----29.96- 75.7 77.9----
2024-05-20 10:36 amENE 5.1 11.1----29.96- 76.1 77.9----
2024-05-20 10:30 amENE 2.9 8.0----29.96- 76.5 77.9----
2024-05-20 10:24 amESE 4.1 8.9----29.96- 75.7 77.9----
2024-05-20 10:18 amENE 6.0 8.0----29.95- 75.9 77.9----
2024-05-20 10:12 am E 6.0 9.9----29.96- 75.7 77.9----
2024-05-20 10:06 am E 6.0 8.9----29.95- 75.0 77.9----
2024-05-20 10:00 amESE 6.0 8.9----29.95+0.04 74.8 77.9----
2024-05-20 09:54 amESE 6.0 9.9----29.95- 74.5 77.9----
2024-05-20 09:48 am SE 7.0 12.0----29.95- 74.3 77.9----
2024-05-20 09:42 amESE 7.0 9.9----29.95- 73.9 77.9----
2024-05-20 09:36 am E 6.0 8.9----29.95- 73.8 77.9----
2024-05-20 09:30 amESE 7.0 8.9----29.94- 73.6 77.9----
2024-05-20 09:24 amESE 7.0 9.9----29.94- 73.2 77.9----
2024-05-20 09:18 amESE 5.1 13.0----29.94- 73.2 77.9----
2024-05-20 09:12 amENE 7.0 11.1----29.94- 73.0 77.9----
2024-05-20 09:06 amENE 5.1 8.9----29.94- 73.2 77.9----
2024-05-20 09:00 am E 7.0 9.9----29.94+0.04 72.7 77.9----
2024-05-20 08:54 amENE 4.1 14.0----29.94- 73.0 77.9----
2024-05-20 08:48 amESE 7.0 13.0----29.93- 72.3 77.9----
2024-05-20 08:42 amESE 7.0 12.0----29.93- 72.1 77.9----
2024-05-20 08:36 amESE 6.0 8.9----29.93- 72.3 77.9----
2024-05-20 08:30 amESE 7.0 12.0----29.93- 72.1 77.9----
2024-05-20 08:24 amESE 8.0 11.1----29.93- 72.1 77.9----
2024-05-20 08:18 am E 5.1 8.9----29.93- 72.3 77.9----
2024-05-20 08:12 am E 5.1 8.9----29.93- 72.0 77.9----
2024-05-20 08:06 amENE 5.1 8.9----29.93- 72.0 77.9----
2024-05-20 08:00 amENE 8.9 13.0----29.93+0.03 71.6 77.9----
2024-05-20 07:54 amENE 7.0 9.9----29.93- 71.6 77.9----
2024-05-20 07:48 amENE 6.0 8.9----29.93- 71.6 77.9----
2024-05-20 07:42 amENE 6.0 8.9----29.93- 71.4 77.9----
2024-05-20 07:36 amENE 6.0 9.9----29.93- 71.2 77.9----
2024-05-20 07:30 amENE 7.0 11.1----29.92- 70.9 77.9----
2024-05-20 07:24 amENE 6.0 8.0----29.92- 70.9 77.9----
2024-05-20 07:18 am NE 7.0 11.1------------
2024-05-20 07:12 amENE 7.0 8.9----29.92- 70.9 77.9----
2024-05-20 07:06 amENE 7.0 9.9----29.91- 70.9 77.9----
2024-05-20 07:00 amENE 6.0 8.0----29.91+0.02 70.9 77.9----
2024-05-20 06:54 am NE 6.0 9.9----29.91- 70.9 77.9----
2024-05-20 06:48 amENE 6.0 9.9----29.91- 70.9 77.9----
2024-05-20 06:42 amENE 4.1 7.0----29.91- 71.1 78.1----
2024-05-20 06:36 amENE 6.0 8.0----29.91- 71.1 78.1----
2024-05-20 06:30 amENE 4.1 8.9----29.91- 71.2 78.1----
2024-05-20 06:24 amENE 5.1 7.0----29.91- 71.2 78.1----
2024-05-20 06:18 amENE 5.1 8.0----29.91- 71.4 78.1----
2024-05-20 06:12 amENE 5.1 8.0----29.90- 71.6 78.1----
2024-05-20 06:06 amENE 5.1 8.9----29.90- 71.8 78.1----
2024-05-20 06:00 amENE 6.0 8.9----29.90+0.01 71.8 78.1----
2024-05-20 05:54 amENE 6.0 8.9----29.90- 71.8 78.1----
2024-05-20 05:48 am NE 6.0 8.0----29.90- 71.8 78.1----
2024-05-20 05:42 amENE 5.1 8.9----29.90- 72.0 78.1----
2024-05-20 05:36 amENE 5.1 8.9----29.90- 72.0 78.1----
2024-05-20 05:30 amENE 5.1 8.9----29.90- 72.1 78.1----
2024-05-20 05:24 amENE 6.0 8.9----29.90- 72.1 78.1----
2024-05-20 05:18 am E 5.1 11.1----29.90- 72.3 78.1----
2024-05-20 05:12 amENE 7.0 11.1----29.90- 72.5 78.1----
2024-05-20 05:06 amENE 8.0 9.9----29.90- 72.5 78.1----
2024-05-20 05:00 amENE 6.0 11.1----29.90+0.00 72.7 78.1----
2024-05-20 04:54 amENE 6.0 9.9----29.90- 72.7 78.1----
2024-05-20 04:48 am E 5.1 8.0----29.90- 72.9 78.1----
2024-05-20 04:42 amENE 7.0 11.1----29.90- 73.0 78.1----
2024-05-20 04:36 amENE 7.0 9.9----29.89- 73.0 78.1----
2024-05-20 04:30 amENE 7.0 12.0----29.89- 73.2 78.1----
2024-05-20 04:24 am NE 8.9 11.1----29.89- 73.4 78.1----
2024-05-20 04:18 am NE 8.9 12.0----29.89- 73.8 78.1----
2024-05-20 04:12 am NE 8.9 12.0----29.89- 73.9 78.3----
2024-05-20 04:06 am NE 7.0 13.0----29.89- 74.1 78.3----
2024-05-20 04:00 amENE 8.0 12.0----29.89-0.01 74.3 78.3----
2024-05-20 03:54 amENE 7.0 11.1----29.89- 74.5 78.3----
2024-05-20 03:48 amENE 6.0 8.0----29.88- 74.5 78.3----
2024-05-20 03:42 amENE 6.0 11.1----29.88- 74.7 78.3----
2024-05-20 03:36 am NE 8.0 11.1----29.88- 74.7 78.3----
2024-05-20 03:30 am NE 7.0 8.0----29.89- 73.9 78.3----
2024-05-20 03:24 am NE 5.1 7.0----29.89- 73.6 78.3----
2024-05-20 03:18 amNNE 4.1 6.0----29.89- 73.6 78.3----
2024-05-20 03:12 amNNE 5.1 8.0----29.89- 73.6 78.3----
2024-05-20 03:06 amNNE 5.1 8.0----29.89- 73.4 78.3----
2024-05-20 03:00 am N 5.1 6.0----29.89-0.02 73.4 78.3----
2024-05-20 02:54 am N 5.1 6.0----29.89- 73.6 78.3----
2024-05-20 02:48 am N 5.1 6.0----29.89-------
2024-05-20 02:42 am N 4.1 5.1----29.89- 73.9 78.3----
2024-05-20 02:36 am N 2.9 4.1----29.89- 74.3 78.3----
2024-05-20 02:30 am N 1.9 2.9----29.89- 74.5 78.3----
2024-05-20 02:24 am N 1.9 4.1----29.90- 74.5 78.4----
2024-05-20 02:18 amNNE 2.9 5.1----29.90-- 78.4----
2024-05-20 02:12 am N 2.9 5.1----29.90- 75.0 78.4----
2024-05-20 02:06 am NW 5.1 6.0----29.90- 75.6 78.4----
2024-05-20 02:00 amNNW 4.1 5.1----29.89-0.01 75.2 78.4----
2024-05-20 01:54 amNNW 4.1 5.1----29.89- 75.6 78.4----
2024-05-20 01:48 amNNW 2.9 5.1----29.89- 75.7 78.4----
2024-05-20 01:42 am NW 4.1 5.1----29.90- 75.9 78.4----
2024-05-20 01:36 am NW 4.1 7.0----29.90- 75.9 78.4----
2024-05-20 01:30 am NW 5.1 6.0----29.90- 76.1 78.6----
2024-05-20 01:24 am NW 5.1 6.0----29.90- 76.1 78.6----
2024-05-20 01:18 am-------29.90-- 78.6----
2024-05-20 01:12 am-------29.90-- 78.6----
2024-05-20 01:06 am-------29.90-- 78.6----
2024-05-20 01:00 am NW 4.1 5.1----29.90+0.00 76.1 78.6----
2024-05-20 12:54 am NW 4.1 5.1----29.90- 76.3 78.6----
2024-05-20 12:48 am NW 5.1 5.1----29.90- 76.3 78.8----
2024-05-20 12:42 am NW 5.1 5.1----29.90- 76.5 78.8----
2024-05-20 12:36 am NW 4.1 6.0----29.90- 76.5 78.8----
2024-05-20 12:30 am NW 4.1 6.0----29.90- 76.5 78.8----
2024-05-20 12:24 am NW 5.1 6.0----29.90- 76.6 79.0----
2024-05-20 12:18 amNNW 2.9 5.1----29.90- 76.6 79.0----
2024-05-20 12:12 amNNW 4.1 6.0----29.90- 76.8 79.0----
2024-05-20 12:06 am NW 4.1 6.0----29.91- 76.8 79.2----
2024-05-20 12:00 am NW 5.1 7.0----29.91+0.02 77.0 79.2----
2024-05-19 11:54 pm NW 6.0 7.0----29.90- 77.2 79.2----
2024-05-19 11:48 pm NW 5.1 6.0----29.91- 77.4 79.2----
2024-05-19 11:42 pm NW 5.1 6.0----29.91- 77.4 79.2----
2024-05-19 11:36 pm NW 5.1 7.0----29.90- 77.4 79.2----
2024-05-19 11:30 pm NW 6.0 7.0----29.91- 77.5 79.3----
2024-05-19 11:24 pm NW 6.0 7.0----29.91- 77.5 79.3----
2024-05-19 11:18 pm NW 6.0 8.0----29.91-- 79.3----
2024-05-19 11:12 pmWNW 8.9 8.9----29.91-- 79.3----
2024-05-19 11:06 pmWNW 8.9 9.9----29.91-- 79.3----
2024-05-19 11:00 pmWNW 9.9 9.9----29.91+0.03 77.9 79.5----
2024-05-19 10:54 pmWNW 8.9 9.9----29.91- 77.9 79.5----
2024-05-19 10:48 pmWNW 8.9 9.9----29.91- 78.1 79.5----
2024-05-19 10:42 pmWNW 8.0 9.9----29.91- 78.1 79.5----
2024-05-19 10:36 pmWNW 8.9 9.9----29.91- 78.1 79.5----
2024-05-19 10:30 pmWNW 9.9 9.9----29.91- 78.3 79.5----
2024-05-19 10:24 pmWNW 9.9 9.9----29.91- 78.4 79.5----
2024-05-19 10:18 pmWNW 9.9 9.9----29.90- 78.3 79.5----
2024-05-19 10:12 pmWNW 8.9 9.9----29.90- 78.3 79.7----
2024-05-19 10:06 pmWNW 8.9 9.9----29.90- 78.3 79.5----
2024-05-19 10:00 pmWNW 9.9 11.1----29.90- 78.1 79.5----
2024-05-19 09:54 pmWNW 8.9 9.9----29.90- 78.3 79.5----
2024-05-19 09:48 pmWNW 8.9 9.9----29.90- 78.1 79.5----
2024-05-19 09:42 pm W 9.9 11.1----29.90- 77.9 79.7----
2024-05-19 09:36 pm W 9.9 12.0----29.90- 78.1 79.7----
2024-05-19 09:30 pm W 9.9 11.1----29.89-- 79.7----
2024-05-19 09:24 pmWNW 9.9 11.1----29.89-- 79.7----
2024-05-19 09:18 pmWNW 9.9 11.1----29.89-- 79.7----
2024-05-19 09:12 pmWNW 9.9 9.9----29.89-- 79.7----
2024-05-19 09:06 pm W 9.9 11.1----29.89-- 79.7----
2024-05-19 09:00 pm W 11.1 12.0----29.89+0.01- 79.7----
2024-05-19 08:54 pm W 9.9 11.1----29.89-- 79.9----
2024-05-19 08:48 pm W 9.9 11.1----29.88- 78.3 79.9----
2024-05-19 08:42 pmWNW 8.9 9.9----29.88- 78.3 79.9----
2024-05-19 08:36 pm W 8.0 9.9----29.88- 78.3 79.9----
2024-05-19 08:30 pm W 9.9 11.1----29.88- 78.1 79.9----
2024-05-19 08:24 pm W 8.9 9.9----29.88- 78.3 79.9----
2024-05-19 08:18 pm---------- 79.9----
2024-05-19 08:12 pm---------- 79.9----
2024-05-19 08:06 pm---------- 80.1----
2024-05-19 08:00 pm W 9.9 11.1----29.88+0.00- 80.1----
2024-05-19 07:54 pm W 8.9 9.9----29.87-- 80.1----
2024-05-19 07:48 pmWNW 9.9 11.1------------
2024-05-19 07:42 pm W 9.9 11.1------------
2024-05-19 07:36 pm W 9.9 11.1------------
2024-05-19 07:30 pm W 8.9 9.9----29.87- 78.4 80.1----
2024-05-19 07:24 pm W 8.9 8.9----29.86- 78.6 80.1----
2024-05-19 07:18 pmWNW 8.9 11.1----29.86- 78.6 80.1----
2024-05-19 07:12 pmWNW 9.9 11.1----29.86- 78.4 80.2----
2024-05-19 07:06 pmWNW 9.9 12.0----29.86- 78.3 80.2----
2024-05-19 07:00 pm W 9.9 12.0------- 80.2----
2024-05-19 06:54 pm W 11.1 11.1------- 80.2----
2024-05-19 06:48 pm W 11.1 12.0----29.86-- 80.2----
2024-05-19 06:42 pmWNW 11.1 12.0----29.86-- 80.2----
2024-05-19 06:36 pmWNW 11.1 12.0----29.86-- 80.2----
2024-05-19 06:30 pmWNW 11.1 12.0----29.86-- 80.2----
2024-05-19 06:24 pmWNW 11.1 12.0----29.86-- 80.2----
2024-05-19 06:18 pm-------29.86- 78.3 80.2----
2024-05-19 06:12 pm-------29.87- 78.1 80.2----
2024-05-19 06:06 pm-------29.87- 78.1 80.2----
2024-05-19 06:00 pm W 12.0 12.0----29.87-0.04 78.1 80.2----
2024-05-19 05:54 pm W 12.0 13.0----29.87- 77.9 80.2----
2024-05-19 05:48 pm W 11.1 12.0----29.87- 77.9 80.2----
2024-05-19 05:42 pm W 12.0 13.0----29.88- 77.9 80.1----
2024-05-19 05:36 pm W 11.1 13.0----29.88- 77.9 80.2----
2024-05-19 05:30 pm W 12.0 13.0----29.88- 77.7 80.2----
2024-05-19 05:24 pm W 12.0 14.0----29.88- 77.7 80.2----
2024-05-19 05:18 pm W 12.0 13.0----29.88- 77.9 80.2----
2024-05-19 05:12 pm W 12.0 13.0----29.88- 77.7 80.1----
2024-05-19 05:06 pm W 12.0 13.0----29.88- 77.7 80.1----
2024-05-19 05:00 pm W 12.0 12.0----29.88-0.05 77.7 80.2----
2024-05-19 04:54 pm W 9.9 12.0----29.88- 77.9 80.1----
2024-05-19 04:48 pm W 11.1 13.0----29.88- 77.7 80.1----
2024-05-19 04:42 pm W 12.0 13.0----29.88- 77.7 80.1----
2024-05-19 04:36 pm W 12.0 13.0----29.88- 77.7 80.1----
2024-05-19 04:30 pm W 13.0 14.0----29.88- 77.5 80.1----
2024-05-19 04:24 pmWSW 13.0 14.0----29.89- 77.5 80.1----
2024-05-19 04:18 pmWSW 12.0 13.0----29.89- 77.5 80.1----
2024-05-19 04:12 pmWSW 12.0 13.0----29.89- 77.5 80.1----
2024-05-19 04:06 pmWSW 12.0 13.0----29.89- 77.7 79.9----
2024-05-19 04:00 pmWSW 12.0 13.0----29.89-0.06- 79.9----
2024-05-19 03:54 pmWSW 12.0 14.0----29.90-- 79.9----
2024-05-19 03:48 pmWSW 12.0 13.0----29.90-- 79.9----
2024-05-19 03:42 pmWSW 12.0 13.0----29.90-- 79.9----
2024-05-19 03:36 pmWSW 12.0 12.0----29.90-- 79.9----
2024-05-19 03:30 pmWSW 11.1 12.0----29.90- 77.5 79.7----
2024-05-19 03:24 pmWSW 9.9 12.0----29.91- 77.7 79.7----
2024-05-19 03:18 pmWSW 11.1 12.0----29.91- 77.7 79.7----
2024-05-19 03:12 pmWSW 12.0 12.0----29.91- 77.5 79.7----
2024-05-19 03:06 pmWSW 11.1 12.0----29.91- 77.4 79.5----
2024-05-19 03:00 pmWSW 9.9 11.1----29.91-0.05- 79.5----
2024-05-19 02:54 pm W 11.1 12.0----29.92-- 79.5----
2024-05-19 02:48 pmWSW 9.9 11.1----29.92- 77.4 79.5----
2024-05-19 02:42 pm W 9.9 12.0----29.92- 77.2 79.3----
2024-05-19 02:36 pm W 12.0 13.0----29.93- 77.4 79.3----
2024-05-19 02:30 pmWSW 12.0 13.0----29.93- 77.4 79.3----
2024-05-19 02:24 pm W 11.1 12.0----29.93- 77.2 79.2----
2024-05-19 02:18 pmWSW 11.1 13.0----29.93- 77.2 79.2----
2024-05-19 02:12 pmWSW 12.0 13.0----29.93- 77.2 79.2----
2024-05-19 02:06 pmWSW 12.0 14.0----29.93- 77.0 79.2----
2024-05-19 02:00 pmWSW 11.1 13.0----29.93-0.03 77.2 79.2----
2024-05-19 01:54 pmWSW 11.1 13.0----29.93- 77.0 79.2----